Time,TemperatureF,DewpointF,PressureIn,WindDirection,WindDirectionDegrees,WindSpeedMPH,WindSpeedGustMPH,Humidity,HourlyPrecipIn,Conditions,Clouds,dailyrainin,SoftwareType,DateUTC
2013-03-10 04:52:00,25.0,-99.9,30.34,NE,39,-999.0,-999.0,-999,-99.99,,,-99.99,,2013-03-10 08:52:00,
2013-03-10 05:21:00,25.0,-99.9,30.34,NE,39,-999.0,-999.0,-999,-99.99,,,-99.99,,2013-03-10 09:21:00,
2013-03-10 05:32:00,25.0,-99.9,30.34,NE,39,-999.0,-999.0,-999,-99.99,,,-99.99,,2013-03-10 09:32:00,
2013-03-10 05:42:00,25.0,-99.9,30.34,NE,39,-999.0,-999.0,-999,-99.99,,,-99.99,,2013-03-10 09:42:00,
2013-03-10 05:52:00,25.0,-99.9,30.35,NE,39,-999.0,-999.0,-999,-99.99,,,-99.99,,2013-03-10 09:52:00,
2013-03-10 06:22:00,25.0,-99.9,30.35,NE,39,-999.0,-999.0,-999,-99.99,,,-99.99,,2013-03-10 10:22:00,
2013-03-10 06:32:00,25.0,-99.9,30.35,NE,39,-999.0,-999.0,-999,-99.99,,,-99.99,,2013-03-10 10:32:00,
2013-03-10 06:42:00,25.0,-99.9,30.35,NE,39,-999.0,-999.0,-999,-99.99,,,-99.99,,2013-03-10 10:42:00,
2013-03-10 06:52:00,24.0,-99.9,30.36,NE,39,-999.0,-999.0,-999,-99.99,,,-99.99,,2013-03-10 10:52:00,
2013-03-10 07:22:00,24.0,-99.9,30.36,NE,39,-999.0,-999.0,-999,-99.99,,,-99.99,,2013-03-10 11:22:00,
2013-03-10 07:32:00,24.0,-99.9,30.36,NE,39,-999.0,-999.0,-999,-99.99,,,-99.99,,2013-03-10 11:32:00,
2013-03-10 07:42:00,24.0,-99.9,30.36,NE,39,-999.0,-999.0,-999,-99.99,,,-99.99,,2013-03-10 11:42:00,
2013-03-10 07:52:00,25.0,-99.9,30.37,NE,39,-999.0,-999.0,-999,-99.99,,,-99.99,,2013-03-10 11:52:00,
2013-03-10 08:21:00,25.0,-99.9,30.37,NE,39,-999.0,-999.0,-999,-99.99,,,-99.99,,2013-03-10 12:21:00,
2013-03-10 08:32:00,25.0,-99.9,30.37,NE,39,-999.0,-999.0,-999,-99.99,,,-99.99,,2013-03-10 12:32:00,
2013-03-10 08:42:00,25.0,-99.9,30.37,NE,39,-999.0,-999.0,-999,-99.99,,,-99.99,,2013-03-10 12:42:00,
2013-03-10 08:52:00,32.0,-99.9,30.37,NE,39,-999.0,-999.0,-999,-99.99,,,-99.99,,2013-03-10 12:52:00,
2013-03-10 09:21:00,32.0,-99.9,30.37,NE,39,-999.0,-999.0,-999,-99.99,,,-99.99,,2013-03-10 13:21:00,
2013-03-10 09:32:00,32.0,-99.9,30.37,NE,39,-999.0,-999.0,-999,-99.99,,,-99.99,,2013-03-10 13:32:00,
2013-03-10 09:42:00,32.0,-99.9,30.37,NE,39,-999.0,-999.0,-999,-99.99,,,-99.99,,2013-03-10 13:42:00,
2013-03-10 09:52:00,44.0,-99.9,30.37,NE,39,-999.0,-999.0,-999,-99.99,,,-99.99,,2013-03-10 13:52:00,
2013-03-10 10:22:00,44.0,-99.9,30.37,NE,39,-999.0,-999.0,-999,-99.99,,,-99.99,,2013-03-10 14:22:00,
2013-03-10 10:32:00,44.0,-99.9,30.37,NE,39,-999.0,-999.0,-999,-99.99,,,-99.99,,2013-03-10 14:32:00,
2013-03-10 10:42:00,44.0,-99.9,30.37,NE,39,-999.0,-999.0,-999,-99.99,,,-99.99,,2013-03-10 14:42:00,
2013-03-10 10:52:00,46.0,-99.9,30.36,SE,142,-999.0,8.0,-999,-99.99,,,-99.99,,2013-03-10 14:52:00,
2013-03-10 11:21:00,46.0,-99.9,30.36,SE,142,-999.0,8.0,-999,-99.99,,,-99.99,,2013-03-10 15:21:00,
2013-03-10 11:32:00,46.0,-99.9,30.36,SE,142,-999.0,8.0,-999,-99.99,,,-99.99,,2013-03-10 15:32:00,
2013-03-10 11:42:00,46.0,-99.9,30.36,SE,142,-999.0,8.0,-999,-99.99,,,-99.99,,2013-03-10 15:42:00,
2013-03-10 11:52:00,49.0,-99.9,30.35,East,94,-999.0,10.0,-999,-99.99,,,-99.99,,2013-03-10 15:52:00,
2013-03-10 12:22:00,49.0,-99.9,30.35,East,94,-999.0,10.0,-999,-99.99,,,-99.99,,2013-03-10 16:22:00,
2013-03-10 12:32:00,49.0,-99.9,30.35,East,94,-999.0,10.0,-999,-99.99,,,-99.99,,2013-03-10 16:32:00,
2013-03-10 12:42:00,49.0,-99.9,30.35,East,94,-999.0,10.0,-999,-99.99,,,-99.99,,2013-03-10 16:42:00,
2013-03-10 12:52:00,54.0,-99.9,30.34,SW,222,-999.0,11.0,-999,-99.99,,,-99.99,,2013-03-10 16:52:00,
2013-03-10 13:21:00,54.0,-99.9,30.34,SW,222,-999.0,11.0,-999,-99.99,,,-99.99,,2013-03-10 17:21:00,
2013-03-10 13:32:00,54.0,-99.9,30.34,SW,222,-999.0,11.0,-999,-99.99,,,-99.99,,2013-03-10 17:32:00,
2013-03-10 13:41:00,54.0,-99.9,30.34,SW,222,-999.0,11.0,-999,-99.99,,,-99.99,,2013-03-10 17:41:00,
2013-03-10 13:52:00,52.0,-99.9,30.32,South,182,-999.0,11.0,-999,-99.99,,,-99.99,,2013-03-10 17:52:00,
2013-03-10 14:22:00,52.0,-99.9,30.32,South,182,-999.0,11.0,-999,-99.99,,,-99.99,,2013-03-10 18:22:00,
2013-03-10 14:32:00,52.0,-99.9,30.32,South,182,-999.0,11.0,-999,-99.99,,,-99.99,,2013-03-10 18:32:00,
2013-03-10 14:42:00,52.0,-99.9,30.32,South,182,-999.0,11.0,-999,-99.99,,,-99.99,,2013-03-10 18:42:00,
2013-03-10 14:52:00,55.0,-99.9,30.29,South,172,-999.0,5.0,-999,-99.99,,,-99.99,,2013-03-10 18:52:00,
2013-03-10 15:22:00,55.0,-99.9,30.29,South,172,-999.0,5.0,-999,-99.99,,,-99.99,,2013-03-10 19:22:00,
2013-03-10 15:32:00,55.0,-99.9,30.29,South,172,-999.0,5.0,-999,-99.99,,,-99.99,,2013-03-10 19:32:00,
2013-03-10 15:42:00,55.0,-99.9,30.29,South,172,-999.0,5.0,-999,-99.99,,,-99.99,,2013-03-10 19:42:00,
2013-03-10 15:52:00,56.0,-99.9,30.28,WSW,252,-999.0,11.0,-999,-99.99,,,-99.99,,2013-03-10 19:52:00,
2013-03-10 16:22:00,56.0,-99.9,30.28,WSW,252,-999.0,11.0,-999,-99.99,,,-99.99,,2013-03-10 20:22:00,
2013-03-10 16:33:00,56.0,-99.9,30.28,WSW,252,-999.0,11.0,-999,-99.99,,,-99.99,,2013-03-10 20:33:00,
2013-03-10 16:43:00,56.0,-99.9,30.28,WSW,252,-999.0,11.0,-999,-99.99,,,-99.99,,2013-03-10 20:43:00,
2013-03-10 16:52:00,54.0,-99.9,30.26,SW,226,-999.0,7.0,-999,-99.99,,,-99.99,,2013-03-10 20:52:00,
2013-03-10 17:23:00,54.0,-99.9,30.26,SW,226,-999.0,7.0,-999,-99.99,,,-99.99,,2013-03-10 21:23:00,
2013-03-10 17:33:00,54.0,-99.9,30.26,SW,226,-999.0,7.0,-999,-99.99,,,-99.99,,2013-03-10 21:33:00,
2013-03-10 17:43:00,54.0,-99.9,30.26,SW,226,-999.0,7.0,-999,-99.99,,,-99.99,,2013-03-10 21:43:00,
2013-03-10 17:52:00,53.0,-99.9,30.25,SW,236,8.0,11.0,-999,-99.99,,,-99.99,,2013-03-10 21:52:00,
2013-03-10 18:23:00,53.0,-99.9,30.25,SW,236,8.0,11.0,-999,-99.99,,,-99.99,,2013-03-10 22:23:00,
2013-03-10 18:33:00,53.0,-99.9,30.25,SW,236,8.0,11.0,-999,-99.99,,,-99.99,,2013-03-10 22:33:00,
2013-03-10 18:43:00,53.0,-99.9,30.25,SW,236,8.0,11.0,-999,-99.99,,,-99.99,,2013-03-10 22:43:00,
2013-03-10 18:52:00,50.0,-99.9,30.28,South,185,-999.0,8.0,-999,-99.99,,,-99.99,,2013-03-10 22:52:00,
2013-03-10 19:33:00,50.0,-99.9,30.28,South,185,-999.0,8.0,-999,-99.99,,,-99.99,,2013-03-10 23:33:00,
2013-03-10 19:43:00,50.0,-99.9,30.28,South,185,-999.0,8.0,-999,-99.99,,,-99.99,,2013-03-10 23:43:00,
2013-03-10 19:52:00,46.0,-99.9,30.28,SW,219,4.0,7.0,-999,-99.99,,,-99.99,,2013-03-10 23:52:00,
2013-03-10 20:23:00,46.0,-99.9,30.28,SW,219,4.0,7.0,-999,-99.99,,,-99.99,,2013-03-11 00:23:00,
2013-03-10 20:33:00,46.0,-99.9,30.28,SW,219,4.0,7.0,-999,-99.99,,,-99.99,,2013-03-11 00:33:00,
2013-03-10 20:43:00,46.0,-99.9,30.28,SW,219,4.0,7.0,-999,-99.99,,,-99.99,,2013-03-11 00:43:00,
2013-03-10 20:52:00,44.0,-99.9,30.29,SW,223,6.0,7.0,-999,-99.99,,,-99.99,,2013-03-11 00:52:00,
2013-03-10 21:23:00,44.0,-99.9,30.29,SW,223,6.0,7.0,-999,-99.99,,,-99.99,,2013-03-11 01:23:00,
2013-03-10 21:33:00,44.0,-99.9,30.29,SW,223,6.0,7.0,-999,-99.99,,,-99.99,,2013-03-11 01:33:00,
2013-03-10 21:43:00,44.0,-99.9,30.29,SW,223,6.0,7.0,-999,-99.99,,,-99.99,,2013-03-11 01:43:00,
2013-03-10 21:52:00,42.0,-99.9,30.30,ESE,112,-999.0,6.0,-999,-99.99,,,-99.99,,2013-03-11 01:52:00,
2013-03-10 22:23:00,42.0,-99.9,30.30,ESE,112,-999.0,6.0,-999,-99.99,,,-99.99,,2013-03-11 02:23:00,
2013-03-10 22:32:00,42.0,-99.9,30.30,ESE,112,-999.0,6.0,-999,-99.99,,,-99.99,,2013-03-11 02:32:00,
2013-03-10 22:42:00,42.0,-99.9,30.30,ESE,112,-999.0,6.0,-999,-99.99,,,-99.99,,2013-03-11 02:42:00,
2013-03-10 22:52:00,39.0,-99.9,30.31,SSW,198,-999.0,3.0,-999,-99.99,,,-99.99,,2013-03-11 02:52:00,
2013-03-10 23:22:00,39.0,-99.9,30.31,SSW,198,-999.0,3.0,-999,-99.99,,,-99.99,,2013-03-11 03:22:00,
2013-03-10 23:32:00,39.0,-99.9,30.31,SSW,198,-999.0,3.0,-999,-99.99,,,-99.99,,2013-03-11 03:32:00,
2013-03-10 23:43:00,39.0,-99.9,30.31,SSW,198,-999.0,3.0,-999,-99.99,,,-99.99,,2013-03-11 03:43:00,
2013-03-10 23:52:00,38.0,-99.9,30.31,SSW,198,-999.0,-999.0,-999,-99.99,,,-99.99,,2013-03-11 03:52:00,